Regional Weather Roundup
Issued by NWS

Home | Current Version | Previous Version | Graphics & Text | Print | Product List | Glossary On
Versions: 1 2 3 4 5 6 7 8 9 10 11 12 13 14 15 16 17 18 19 20 21 22 23 24 25 26 27 28 29 30 31 32 33 34 35 36 37 38 39 40 41 42 43 44 45 46 47 48 49 50
000
ASUS43 KDTX 240410
RWRMI
MICHIGAN HOURLY REGIONAL WEATHER ROUNDUP
NATIONAL WEATHER SERVICE DETROIT/PONTIAC MI
1200 AM EDT WED MAY 24 2017

NOTE: "FAIR" INDICATES FEW OR NO CLOUDS BELOW 12,000 FEET WITH NO
SIGNIFICANT WEATHER AND/OR OBSTRUCTION TO VISIBILITY.

MIZ047>049-052>055-059>063-066>070-074>076-081>083-240500-
SOUTHEAST LOWER MICHIGAN

CITY           SKY/WX    TMP DP  RH WIND       PRES   REMARKS
ADRIAN         PTCLDY    57  54  89 NE6       29.70F
ALMA           CLOUDY    56  55  95 CALM      29.74S
ANN ARBOR      CLOUDY    58  55  90 NE6       29.70F
BAD AXE        CLOUDY    55  54  97 NE5       29.75F FOG
CARO           MOCLDY    56  55  95 NE3       29.73F
DETROIT CITY   CLOUDY    62  52  69 N10       29.71F
DETROIT        CLOUDY    62  53  72 NE6       29.71F
FLINT          CLOUDY    57  52  83 NE10      29.73F
GROSSE ILE     CLOUDY    62  47  58 NE5       29.69F
HILLSDALE      PTCLDY    57  52  82 NE9       29.69S
HOWELL         CLOUDY    56  52  88 NE3       29.71F

CITY           SKY/WX    TMP DP  RH WIND       PRES   REMARKS
JACKSON        PTCLDY    57  53  86 NE7       29.70F
LAMBERTVILLE   CLOUDY    59  50  71 NE6       29.68F
LANSING        PTCLDY    58  53  84 NE5       29.72F
LAPEER         FAIR      56  55  95 CALM      29.74F
MASON          CLOUDY    57  54  89 NE6       29.71F
MONROE         CLOUDY    60  48  64 CALM      29.68F
MT. CLEMENS    CLOUDY    60  53  79 N8        29.71F
PONTIAC        PTCLDY    57  53  86 NE8       29.71F
PORT HOPE        N/A     54  54 100 CALM      29.75F
PORT HURON     CLOUDY    59  46  63 CALM      29.73R
TRI CITIES     CLOUDY    58  56  93 E6        29.73F
MIDLAND        CLOUDY    57  56  95 E3        29.73S
TROY           CLOUDY    60  52  75 N5        29.73F
SAGINAW HB     CLOUDY    57  54  88 E7        29.73F
$$
MIZ043>046-050>051-056>058-064>065-071>073-077>080-240500-
SOUTHWEST LOWER MICHIGAN

CITY           SKY/WX    TMP DP  RH WIND       PRES   REMARKS
BATTLE CREEK   CLOUDY    58  56  93 NE7       29.70F
BENTON HARBOR  CLOUDY    57  54  89 CALM      29.69F
BIG RAPIDS     CLOUDY    55  51  87 CALM      29.73F
COLDWATER      CLOUDY    57  56  94 NE5       29.69F
FREMONT        CLOUDY    55  51  86 NE7       29.71F
HOLLAND        CLOUDY    59  55  87 NE3       29.71F
GRAND RAPIDS   CLOUDY    57  56  96 E5        29.71F
IONIA          FAIR      56  55  96 E3        29.71F
KALAMAZOO      CLOUDY    58  53  84 NE5       29.69F
LUDINGTON      RAIN      53  53 100 CALM      29.73S
MARSHALL       CLOUDY    57  57  98 NE3       29.69F
MOUNT PLEASANT CLOUDY    55  53  94 CALM      29.72F
MUSKEGON       CLOUDY    58  55  90 E3        29.71F
SOUTH HAVEN    CLOUDY    59  56  92 NE5       29.69F
$$
MIZ016>042-240500-
NORTHERN LOWER MICHIGAN

CITY           SKY/WX    TMP DP  RH WIND       PRES   REMARKS
ALPENA         LGT RAIN  51  51 100 E3        29.77F FOG
BEAVER ISLAND  CLOUDY    52  45  76 NE3       29.78F
BELLAIRE       CLOUDY    53  51  93 CALM      29.75F
CADILLAC       CLOUDY    53  52  97 CALM      29.74S
CHARLEVOIX     RAIN      51  49  93 CALM      29.79F
FRANKFORT      LGT RAIN  53  50  90 NE3       29.73F
GAYLORD        CLOUDY    54  50  86 NE3       29.75F
GRAYLING       CLOUDY    54  53  97 CALM      29.75S
HARBOR SPRINGS DRIZZLE   51  50  95 N5        29.76F
HOUGHTON LAKE  CLOUDY    52  51  97 CALM      29.75S
MANISTEE       LGT RAIN  55  54  96 E6        29.72F
OSCODA         LGT RAIN  49  48  97 NE5       29.76F
PELLSTON       LGT RAIN  52  46  80 CALM      29.77F
ROGERS CITY    RAIN      48  46  92 CALM      29.78S
TRAVERSE CITY  LGT RAIN  50  47  89 CALM      29.74F
$$
MIZ007>008-015-240500-
EASTERN UPPER MICHIGAN

CITY           SKY/WX    TMP DP  RH WIND       PRES   REMARKS
KINROSS        MOCLDY    47  43  86 N5        29.77F
MACKINAC ISLAN CLOUDY    49  45  85 N7        29.77F
NEWBERRY       CLOUDY    46  45  97 N5        29.78F
S. S. MARIE    CLOUDY    47  43  86 CALM      29.77F
MUNISING         N/A     40  40 100 NW10      29.82F WCI  33
$$
MIZ004>006-011>014-085-240500-
CENTRAL UPPER MICHIGAN

CITY           SKY/WX    TMP DP  RH WIND       PRES   REMARKS
MANISTIQUE     CLOUDY    49  44  84 N9        29.78F
ESCANABA       LGT RAIN  48  45  89 N7        29.80S
MENOMINEE      RAIN      49  47  93 NE12      29.78F
SAWYER-GWINN   CLOUDY    43  42  97 NE8       29.83F FOG
$$
MIZ001>003-009>011-084-240500-
WESTERN UPPER MICHIGAN

CITY           SKY/WX    TMP DP  RH WIND       PRES   REMARKS
IRON MOUNTAIN  CLOUDY    50  42  74 N7        29.80S
HOUGHTON       CLOUDY    49  42  77 N8        29.84F
COPPER HARBOR    N/A     44  41  89 N6        29.86F
IRONWOOD       CLOUDY    45  42  89 N5        29.86F
$$

ABBREVIATIONS USED IN REMARKS
   TC - TEMPERATURE IN CELSIUS
  WCI - WIND CHILL INDEX
   HX - HEAT INDEX
  VSB - VISIBILITY





USA.gov is the U.S. government's official web portal to all federal, state and local government web resources and services.